Weather reports worldwide

Advertisment
Exeter Airport No. 2, United Kingdom (3844): temperature & dewpoint: 17.05.2018 02:00:00 - 23.05.2018 02:00:00 (BST)Exeter Airport No. 2, United Kingdom (3844): wind speed: 17.05.2018 02:00:00 - 23.05.2018 02:00:00 (BST)Exeter Airport No. 2, United Kingdom (3844): wind direction: 17.05.2018 02:00:00 - 23.05.2018 02:00:00 (BST)Exeter Airport No. 2, United Kingdom (3844): reduced air pressure: 17.05.2018 02:00:00 - 23.05.2018 02:00:00 (BST)Exeter Airport No. 2, United Kingdom (3844): visibility: 17.05.2018 02:00:00 - 23.05.2018 02:00:00 (BST)Exeter Airport No. 2, United Kingdom (3844): sunshine duration: 17.05.2018 02:00:00 - 23.05.2018 02:00:00 (BST)Exeter Airport No. 2, United Kingdom (3844): precipitation: 17.05.2018 02:00:00 - 23.05.2018 02:00:00 (BST)
Date & Time tt [°C] td [°C] ff [km/h] ff [kn] dd ppp [hPa] vv [km] sd [min] rr [mm]
23.05.2018 02:00:00 8,9 7,4 5 3 NNW 1021,2 10 0 0,0
23.05.2018 01:00:00 11,8 10,1 2 1 E 1021,2 14 - 0,0
23.05.2018 00:00:00 14,1 10,1 11 6 N 1020,7 16 0 0,0
22.05.2018 23:00:00 13,6 10,3 4 2 NE 1020,2 16 0 0,0
22.05.2018 22:00:00 16,3 10,2 9 5 N 1019,6 20 0 0,0
22.05.2018 21:00:00 17,1 10,3 5 3 NNE 1018,8 21 30 0,0
22.05.2018 20:00:00 19,5 10,3 13 7 N 1018,3 26 60 0,0
22.05.2018 19:00:00 20,5 10,1 15 8 N 1018,0 24 60 0,0
22.05.2018 18:00:00 21,0 9,4 13 7 N 1017,8 18 60 0,0
22.05.2018 17:00:00 21,3 7,8 15 8 N 1017,6 20 60 0,0
22.05.2018 16:00:00 21,9 7,7 15 8 N 1017,7 26 60 0,0
22.05.2018 15:00:00 21,7 8,1 13 7 NNE 1017,7 28 60 0,0
22.05.2018 14:00:00 20,1 11,0 11 6 N 1017,8 24 42 0,0
22.05.2018 13:00:00 18,7 11,7 13 7 NNE 1017,9 22 0 0,0
22.05.2018 12:00:00 16,8 10,7 16 9 N 1017,7 22 24 0,0
22.05.2018 11:00:00 19,0 12,2 11 6 NNE 1017,2 24 60 0,0
22.05.2018 10:00:00 17,3 11,4 13 7 NNE 1017,1 25 42 0,0
22.05.2018 09:00:00 14,4 11,0 11 6 NW 1017,1 19 0 0,0
22.05.2018 08:00:00 14,5 10,5 11 6 N 1016,7 23 0 0,0
22.05.2018 07:00:00 12,8 9,7 5 3 N 1016,3 20 0 0,0
22.05.2018 06:00:00 11,9 9,1 8 4 NNW 1016,1 20 0 0,0
22.05.2018 05:00:00 12,2 9,1 9 5 NNW 1015,9 19 0 0,0
22.05.2018 04:00:00 12,9 9,7 9 5 NNW 1015,7 17 0 0,0
22.05.2018 03:00:00 12,2 9,6 8 4 N 1015,7 19 0 0,0
22.05.2018 02:00:00 13,0 9,8 9 5 NNW 1015,9 20 0 0,0
22.05.2018 01:00:00 13,2 10,3 9 5 NNW 1015,7 17 - 0,0
22.05.2018 00:00:00 14,2 11,0 8 4 N 1015,7 17 0 0,0
21.05.2018 23:00:00 15,8 11,3 8 4 NW 1015,7 16 0 0,0
21.05.2018 22:00:00 15,7 10,6 2 1 NNE 1016,0 17 0 0,0
21.05.2018 21:00:00 16,1 9,7 8 4 SSE 1015,6 20 0 0,0
21.05.2018 20:00:00 18,1 10,9 4 2 SW 1015,0 20 0 0,0
21.05.2018 19:00:00 19,2 10,2 13 7 SE 1014,7 25 12 0,0
21.05.2018 18:00:00 22,3 11,4 9 5 N 1014,3 25 60 0,0
21.05.2018 17:00:00 22,3 8,9 8 4 N 1014,3 30 60 0,0
21.05.2018 16:00:00 22,8 10,4 8 4 ENE 1014,7 35 54 0,0
21.05.2018 15:00:00 22,1 10,4 5 3 NNE 1015,0 30 60 0,0
21.05.2018 14:00:00 21,6 8,3 9 5 NNE 1015,3 40 60 0,0
21.05.2018 13:00:00 20,3 7,8 9 5 N 1015,6 45 42 0,0
21.05.2018 12:00:00 19,3 8,1 9 5 NNE 1016,0 35 54 0,0
21.05.2018 11:00:00 18,3 9,7 8 4 NNE 1016,3 30 60 0,0
21.05.2018 10:00:00 16,6 12,1 5 3 N 1016,7 15 60 0,0
21.05.2018 09:00:00 12,7 12,4 4 2 N 1017,1 13 60 0,0
21.05.2018 08:00:00 8,7 8,7 4 2 N 1017,2 8 60 0,0
21.05.2018 07:00:00 6,0 6,0 2 1 NE 1017,4 0,3 6 0,0
21.05.2018 06:00:00 5,6 5,6 4 2 N 1017,4 0,1 0 0,0
21.05.2018 05:00:00 6,0 6,0 2 1 NNE 1017,5 0,1 0 0,0
21.05.2018 04:00:00 6,6 6,6 2 1 NNW 1017,9 0,1 0 0,0
21.05.2018 03:00:00 7,3 7,3 4 2 WNW 1018,1 0,1 0 0,0
21.05.2018 02:00:00 7,4 7,4 4 2 ENE 1018,6 0,1 0 0,0
21.05.2018 01:00:00 7,6 7,6 2 1 NE 1019,2 0,1 - 0,0
21.05.2018 00:00:00 8,0 7,9 2 1 ENE 1019,4 0,1 0 0,0
20.05.2018 23:00:00 8,3 8,2 4 2 ENE 1019,5 0,1 0 0,0
20.05.2018 22:00:00 8,8 8,4 4 2 SSE 1019,7 1,2 0 0,0
20.05.2018 21:00:00 9,9 9,1 5 3 SSW 1019,5 3,3 0 0,0
20.05.2018 20:00:00 11,4 9,9 9 5 SW 1019,3 5 6 0,0
20.05.2018 19:00:00 13,6 10,4 5 3 SSE 1019,5 10 54 0,0
20.05.2018 18:00:00 14,4 10,3 11 6 SSE 1019,8 12 60 0,0
20.05.2018 17:00:00 14,8 10,5 9 5 SSE 1020,2 16 60 0,0
20.05.2018 16:00:00 14,4 10,7 11 6 SE 1020,8 12 54 0,0
20.05.2018 15:00:00 13,8 10,4 13 7 SE 1021,6 9 60 0,0
20.05.2018 14:00:00 14,1 10,1 15 8 SE 1022,1 14 60 0,0
20.05.2018 13:00:00 14,0 10,2 15 8 SSE 1022,4 15 60 0,0
20.05.2018 12:00:00 15,3 11,3 13 7 SSE 1022,3 17 60 0,0
20.05.2018 11:00:00 14,5 9,8 13 7 SSE 1022,6 18 60 0,0
20.05.2018 10:00:00 14,8 9,4 13 7 SE 1022,7 23 60 0,0
20.05.2018 09:00:00 12,9 9,7 2 1 WNW 1022,8 14 60 0,0
20.05.2018 08:00:00 9,4 8,6 2 1 NE 1022,7 10 60 0,0
20.05.2018 07:00:00 5,7 5,7 4 2 WNW 1022,6 8 48 0,0
20.05.2018 06:00:00 3,6 3,5 2 1 NNE 1022,6 3,2 0 0,0
20.05.2018 05:00:00 4,0 3,8 4 2 E 1022,7 4,3 0 0,0
20.05.2018 04:00:00 4,1 3,7 2 1 NE 1022,8 7 0 0,0
20.05.2018 03:00:00 4,3 3,9 4 2 E 1022,7 4,8 0 0,0
20.05.2018 02:00:00 5,2 4,7 4 2 NE 1022,7 6 0 0,0
20.05.2018 01:00:00 5,8 5,0 5 3 ENE 1023,0 7 - 0,0
20.05.2018 00:00:00 7,0 5,9 2 1 NE 1023,0 7 0 0,0
19.05.2018 23:00:00 7,8 6,1 4 2 E 1023,1 11 0 0,0
19.05.2018 22:00:00 9,0 5,9 4 2 ENE 1022,9 11 0 0,0
19.05.2018 21:00:00 11,1 7,2 5 3 ESE 1022,7 13 6 0,0
19.05.2018 20:00:00 14,4 6,3 5 3 S 1022,6 17 42 0,0
19.05.2018 19:00:00 15,7 7,9 13 7 SSW 1022,8 20 60 0,0
19.05.2018 18:00:00 16,6 7,3 16 9 S 1022,7 21 60 0,0
19.05.2018 17:00:00 17,5 8,1 15 8 SSE 1022,9 24 60 0,0
19.05.2018 16:00:00 17,8 8,1 16 9 SSE 1023,2 25 60 0,0
19.05.2018 15:00:00 18,1 7,7 16 9 SSE 1023,3 27 60 0,0
19.05.2018 14:00:00 18,6 9,2 13 7 SSE 1023,6 26 60 0,0
19.05.2018 13:00:00 18,2 7,9 15 8 SE 1023,8 24 60 0,0
19.05.2018 12:00:00 18,1 7,4 5 3 ESE 1024,0 29 60 0,0
19.05.2018 11:00:00 17,4 9,5 4 2 SSW 1024,1 21 60 0,0
19.05.2018 10:00:00 15,6 9,8 2 1 ESE 1024,4 20 60 0,0
19.05.2018 09:00:00 12,3 9,6 2 1 SW 1024,5 19 60 0,0
19.05.2018 08:00:00 9,3 8,9 4 2 NNE 1024,5 11 60 0,0
19.05.2018 07:00:00 4,9 4,7 4 2 NE 1024,3 7 6 0,0
19.05.2018 06:00:00 3,2 2,7 5 3 ENE 1024,3 1,5 0 0,0
19.05.2018 05:00:00 4,9 4,1 2 1 ENE 1024,1 4,9 0 0,0
19.05.2018 04:00:00 7,1 6,8 4 2 NNW 1024,1 11 0 0,0
19.05.2018 03:00:00 6,2 5,7 2 1 ESE 1024,4 9 0 0,0
19.05.2018 02:00:00 7,0 5,9 4 2 NNW 1024,6 9 0 0,0
19.05.2018 01:00:00 8,4 6,4 5 3 NW 1024,8 13 - 0,0
19.05.2018 00:00:00 7,1 6,6 2 1 ENE 1024,6 9 0 0,0
18.05.2018 23:00:00 8,2 7,6 0 0 N 1024,6 7 0 0,0
18.05.2018 22:00:00 8,2 6,3 2 1 E 1024,6 8 0 0,0
18.05.2018 21:00:00 11,2 8,1 4 2 E 1024,3 12 6 0,0
18.05.2018 20:00:00 13,0 8,8 5 3 ESE 1024,2 13 0 0,0
18.05.2018 19:00:00 14,4 9,1 8 4 S 1024,3 13 12 0,0
18.05.2018 18:00:00 14,4 9,2 9 5 SSW 1024,4 15 0 0,0
18.05.2018 17:00:00 14,7 9,4 15 8 SW 1024,4 16 0 0,0
18.05.2018 16:00:00 16,8 9,2 8 4 SSW 1024,4 16 0 0,0
18.05.2018 15:00:00 15,8 9,3 11 6 SW 1024,8 17 42 0,0
18.05.2018 14:00:00 15,5 9,4 11 6 SSW 1025,1 17 0 0,0
18.05.2018 13:00:00 15,0 9,5 15 8 S 1025,5 18 0 0,0
18.05.2018 12:00:00 15,2 9,7 5 3 S 1025,6 14 42 0,0
18.05.2018 11:00:00 14,5 8,7 4 2 ENE 1025,8 19 60 0,0
18.05.2018 10:00:00 12,5 8,3 4 2 S 1026,3 14 60 0,0
18.05.2018 09:00:00 11,4 8,2 2 1 WSW 1026,5 17 60 0,0
18.05.2018 08:00:00 8,8 7,5 2 1 ENE 1026,6 20 60 0,0
18.05.2018 07:00:00 5,3 5,2 5 3 WNW 1026,4 16 30 0,0
18.05.2018 06:00:00 2,9 2,7 2 1 ENE 1026,2 13 0 0,0
18.05.2018 05:00:00 3,6 3,5 2 1 NNE 1026,2 10 0 0,0
18.05.2018 04:00:00 2,8 2,4 2 1 E 1026,0 7 0 0,0
18.05.2018 03:00:00 3,5 3,0 2 1 SE 1026,0 10 0 0,0
18.05.2018 02:00:00 4,6 4,2 2 1 W 1025,9 10 0 0,0
18.05.2018 01:00:00 4,2 3,4 4 2 NE 1026,1 9 - 0,0
18.05.2018 00:00:00 5,3 4,1 2 1 ENE 1026,2 8 0 0,0
17.05.2018 23:00:00 6,2 5,1 4 2 E 1026,0 9 0 0,0
17.05.2018 22:00:00 8,1 6,0 4 2 SE 1026,0 14 0 0,0
17.05.2018 21:00:00 10,3 5,2 4 2 WSW 1025,7 16 42 0,0
17.05.2018 20:00:00 13,6 7,4 8 4 SW 1025,6 19 60 0,0
17.05.2018 19:00:00 15,1 6,5 11 6 SSW 1025,6 20 60 0,0
17.05.2018 18:00:00 15,7 7,6 9 5 S 1025,6 24 60 0,0
17.05.2018 17:00:00 15,5 7,7 13 7 SSE 1025,7 24 30 0,0
17.05.2018 16:00:00 17,7 5,9 8 4 NNE 1025,8 19 60 0,0
17.05.2018 15:00:00 17,1 4,4 13 7 ENE 1026,1 21 60 0,0
17.05.2018 14:00:00 16,2 3,3 11 6 E 1026,4 22 60 0,0
17.05.2018 13:00:00 16,0 4,3 13 7 ENE 1026,9 29 60 0,0
17.05.2018 12:00:00 14,5 4,2 11 6 NE 1027,2 25 60 0,0
17.05.2018 11:00:00 13,4 4,5 8 4 ENE 1027,5 25 60 0,0
17.05.2018 10:00:00 12,0 5,6 8 4 NE 1027,8 21 60 0,0
17.05.2018 09:00:00 11,2 5,6 9 5 NE 1027,8 22 60 0,0
17.05.2018 08:00:00 9,7 5,2 16 9 NE 1027,5 20 60 0,0
17.05.2018 07:00:00 8,0 5,1 9 5 NE 1027,5 18 42 0,0
17.05.2018 06:00:00 6,4 4,5 8 4 NE 1027,5 15 0 0,0
17.05.2018 05:00:00 6,8 4,5 8 4 NE 1027,3 16 0 0,0
17.05.2018 04:00:00 7,3 4,9 8 4 NE 1027,3 12 0 0,0
17.05.2018 03:00:00 9,0 5,5 9 5 NE 1027,6 14 0 0,0
17.05.2018 02:00:00 9,7 6,0 13 7 NE 1028,0 15 0 0,0

tt = temperature
td = dewpoint
ff = wind speed
dd = wind direction
ppp = reduced air pressure
vv = visibility
sd = sunshine duration
rr = precipitation

Next stations